EW4258 Weather Reports


time (UTC)temp
F
wind
direction
speed
knots
gust
knots
rain 1hr
in
rain 24hr
in
rain mn
in
humidity
%
barometer
mb
20260506001112 46 112 0.0 1.7 0.00 0.00 0.00 51 1010.4
20260506000111 46 135 0.0 0.0 0.00 0.00 0.00 51 1010.6
20260505235111 46 67 0.9 1.7 0.00 0.00 0.00 50 1010.6
20260505234111 46 180 0.0 0.0 0.00 0.00 0.00 50 1010.8
20260505233112 47 292 0.9 0.0 0.00 0.00 0.00 50 1010.8
20260505232111 47 67 0.0 0.0 0.00 0.00 0.00 49 1010.4
20260505231111 47 67 0.0 0.0 0.00 0.00 0.00 50 1010.4
20260505225110 48 157 0.9 0.0 0.00 0.00 0.00 48 1010.2
20260505224110 49 90 0.0 0.0 0.00 0.00 0.00 48 1010.2
20260505223110 49 135 0.0 0.0 0.00 0.00 0.00 48 1010.2
20260505222110 49 225 0.0 0.0 0.00 0.00 0.00 48 1010.1
20260505221110 50 202 0.9 0.0 0.00 0.00 0.00 47 1010.1
20260505220114 50 157 0.0 0.0 0.00 0.00 0.00 46 1010.0
20260505214114 51 90 0.0 0.0 0.00 0.00 0.00 46 1010.0
20260505212113 52 202 0.0 0.0 0.00 0.00 0.00 45 1009.9
20260505211113 52 292 0.9 0.0 0.00 0.00 0.00 44 1009.9
20260505210114 53 202 0.0 0.0 0.00 0.00 0.00 43 1009.5
20260505204113 54 67 0.9 0.0 0.00 0.00 0.00 42 1009.3
20260505203115 54 157 0.0 0.9 0.00 0.00 0.00 42 1009.3
20260505202113 55 90 0.0 0.0 0.00 0.00 0.00 42 1009.1
20260505201113 56 202 0.0 0.0 0.00 0.00 0.00 41 1009.1
20260505200113 56 315 0.0 0.0 0.00 0.00 0.00 40 1008.7
20260505195113 57 157 0.0 0.0 0.00 0.00 0.00 39 1008.7
20260505194113 58 90 0.9 0.9 0.00 0.00 0.00 38 1008.4
20260505193113 59 90 0.0 0.0 0.00 0.00 0.00 38 1008.4
20260505192113 59 202 0.0 0.0 0.00 0.00 0.00 37 1008.2
20260505190113 61 202 0.0 0.0 0.00 0.00 0.00 35 1008.0
20260505185112 62 247 0.9 0.0 0.00 0.00 0.00 34 1008.0
20260505183113 64 90 1.7 2.6 0.00 0.00 0.00 32 1007.8
20260505182112 65 135 1.7 2.6 0.00 0.00 0.00 32 1007.8
20260505181113 66 112 1.7 1.7 0.00 0.00 0.00 32 1007.8
20260505180112 67 135 0.9 1.7 0.00 0.00 0.00 32 1007.6
20260505175112 67 247 1.7 1.7 0.00 0.00 0.00 32 1007.6
20260505173113 68 157 1.7 3.5 0.00 0.00 0.00 32 1007.6
20260505172113 69 157 2.6 1.7 0.00 0.00 0.00 33 1007.6
20260505171112 69 247 0.9 2.6 0.00 0.00 0.00 33 1007.6
20260505170112 69 360 1.7 0.0 0.00 0.00 0.00 32 1007.6
20260505165112 70 135 2.6 4.3 0.00 0.00 0.00 32 1007.6
20260505164112 70 67 2.6 4.3 0.00 0.00 0.00 33 1008.2
20260505163112 70 112 2.6 3.5 0.00 0.00 0.00 32 1008.2
20260505162112 69 67 3.5 3.5 0.00 0.00 0.00 33 1008.2
20260505161113 69 90 2.6 3.5 0.00 0.00 0.00 33 1008.2
20260505160112 69 90 2.6 3.5 0.00 0.00 0.00 33 1008.3
20260505153113 68 90 2.6 1.7 0.00 0.00 0.00 33 1008.4
20260505152113 68 67 2.6 1.7 0.00 0.00 0.00 34 1008.6
20260505151113 69 135 1.7 3.5 0.00 0.00 0.00 33 1008.6
20260505150111 69 292 1.7 1.7 0.00 0.00 0.00 32 1008.1
20260505140111 72 180 2.6 5.2 0.00 0.00 0.00 31 1007.9
20260505130110 74 135 2.6 3.5 0.00 0.00 0.00 31 1008.1
20260505124110 73 225 2.6 1.7 0.00 0.00 0.00 31 1007.9
20260505123110 74 157 3.5 2.6 0.00 0.00 0.00 31 1007.9
20260505122112 75 225 3.5 2.6 0.00 0.00 0.00 31 1008.1
20260505121115 74 225 3.5 6.1 0.00 0.00 0.00 32 1008.1
20260505120115 74 157 2.6 2.6 0.00 0.00 0.00 31 1008.2
20260505115115 74 225 4.3 5.2 0.00 0.00 0.00 31 1008.2
20260505114115 75 225 3.5 3.5 0.00 0.00 0.00 31 1007.9
20260505113115 75 225 3.5 3.5 0.00 0.00 0.00 31 1007.9
20260505112116 74 225 0.9 4.3 0.00 0.00 0.00 29 1008.2
20260505111116 74 45 0.9 0.9 0.00 0.00 0.00 30 1008.2
20260505110114 74 225 1.7 0.0 0.00 0.00 0.00 30 1008.6
20260505102115 72 202 1.7 0.0 0.00 0.00 0.00 32 1008.9
20260505101114 71 112 1.7 6.1 0.00 0.00 0.00 33 1008.9
20260505095114 71 135 2.6 3.5 0.00 0.00 0.00 35 1009.1
20260505094114 71 112 1.7 3.5 0.00 0.00 0.00 35 1009.3
20260505093114 70 225 1.7 1.7 0.00 0.00 0.00 39 1009.3
20260505091113 68 292 0.9 1.7 0.00 0.00 0.00 39 1009.6
20260505090113 68 225 0.9 3.5 0.00 0.00 0.00 40 1009.9
20260505085113 66 225 0.0 0.9 0.00 0.00 0.00 39 1009.9
20260505084113 66 157 0.9 0.9 0.00 0.00 0.00 39 1010.0
20260505083113 65 112 0.0 0.9 0.00 0.00 0.00 40 1010.0
20260505082113 64 45 0.0 0.9 0.00 0.00 0.00 40 1010.2
20260505081113 63 225 0.0 0.0 0.00 0.00 0.00 41 1010.2
20260505080113 63 225 0.9 1.7 0.00 0.00 0.00 42 1010.2
20260505075113 61 225 0.9 2.6 0.00 0.00 0.00 41 1010.2
20260505074113 61 225 0.0 0.9 0.00 0.00 0.00 41 1010.6
20260505073113 61 135 0.0 0.0 0.00 0.00 0.00 42 1010.6
20260505071113 60 67 0.0 0.0 0.00 0.00 0.00 42 1010.9
20260505070114 59 45 0.9 1.7 0.00 0.00 0.00 42 1011.1
20260505064112 59 157 0.0 0.0 0.00 0.00 0.00 45 1011.3
20260505063112 58 135 0.9 1.7 0.00 0.00 0.00 45 1011.3
20260505061112 54 247 0.0 1.7 0.00 0.00 0.00 46 1011.4
20260505060112 54 337 0.9 0.9 0.00 0.00 0.00 47 1011.2
20260505055112 53 67 0.0 1.7 0.00 0.00 0.00 48 1011.2
20260505054112 51 292 0.0 0.0 0.00 0.00 0.00 49 1011.5
20260505052112 47 180 1.7 0.0 0.00 0.00 0.00 52 1011.5
20260505051111 44 45 0.0 0.9 0.00 0.00 0.00 52 1011.5
20260505050111 44 157 0.9 0.0 0.00 0.00 0.00 51 1011.8
20260505041111 44 90 0.0 0.0 0.00 0.00 0.00 50 1011.4
20260505040111 44 202 0.0 0.0 0.00 0.00 0.00 50 1011.5
20260505035112 45 135 0.0 0.0 0.00 0.00 0.00 50 1011.5
20260505034113 45 90 0.9 0.9 0.00 0.00 0.00 50 1011.6
20260505033113 45 135 0.0 0.0 0.00 0.00 0.00 50 1011.6
20260505032113 45 45 0.0 0.0 0.00 0.00 0.00 49 1011.8
20260505030112 46 157 0.0 0.0 0.00 0.00 0.00 48 1011.8
20260505024112 47 180 0.0 0.0 0.00 0.00 0.00 48 1011.9
20260505023112 47 67 0.0 1.7 0.00 0.00 0.00 48 1011.9
20260505021113 48 180 0.0 0.0 0.00 0.00 0.00 48 1011.9
20260505020112 48 202 0.0 0.0 0.00 0.00 0.00 47 1011.9
20260505015112 49 67 0.0 0.0 0.00 0.00 0.00 46 1011.9
20260505014112 49 157 0.9 0.0 0.00 0.00 0.00 47 1012.0
20260505013112 49 112 0.9 0.9 0.00 0.00 0.00 46 1012.0
20260505012112 50 67 0.0 0.9 0.00 0.00 0.00 46 1012.1
20260505011112 50 112 0.9 0.0 0.00 0.00 0.00 45 1012.1
20260505010112 50 135 0.0 0.0 0.00 0.00 0.00 45 1012.2
20260505005112 50 157 0.0 0.0 0.00 0.00 0.00 45 1012.2
20260505003111 51 90 0.0 0.0 0.00 0.00 0.00 44 1012.2
20260505002111 52 202 0.0 0.0 0.00 0.00 0.00 43 1012.3